Temperature
17 17 17 17 17 17 17 17 17 17 17 17 17 17 17 17 17 17 17 17 17 17 16 16 16 16 16 16 16 16 16 16 16 16 16 16 16 16 16 16 16 15 15
17 17 17 17 17 17 17 17 17 17 17 17 17 17 17 17 17 16 16 17 17 17 17 17 16 16 16 16 16 16 16 16 16 16 16 16 16 16 16 16 16 15 15
17 17 17 17 17 17 17 17 17 17 17 17 17 17 17 16 16 16 16 16 16 17 17 17 16 16 16 16 16 16 16 16 16 16 16 16 16 16 16 16 16 15 15
17 17 17 17 17 17 17 17 17 17 17 17 17 17 17 17 16 16 16 16 16 16 16 17 17 16 16 16 16 16 16 16 16 16 16 16 16 16 16 16 16 15 15
17 17 17 17 17 17 17 17 17 17 17 17 17 17 17 17 16 17 16 16 16 16 16 17 17 16 16 16 16 16 16 16 16 16 16 16 15 15 15 15 15 15 15
17 17 17 17 17 17 17 17 17 17 17 17 17 17 17 17 17 17 17 17 16 16 16 16 16 16 16 16 16 16 16 16 16 16 16 15 15 15 15 15 15 15 15
17 17 17 17 17 17 17 17 17 17 17 17 17 17 17 17 17 17 17 17 17 16 16 16 16 16 16 16 16 16 16 16 16 16 16 15 15 15 15 15 15 15 15
17 17 17 17 17 17 17 16 17 17 17 17 17 18 18 18 17 18 17 17 17 17 16 16 16 16 16 16 16 16 16 16 16 16 15 15 15 15 15 15 15 15 15
17 17 17 17 17 17 17 17 17 17 17 17 17 18 18 19 18 18 17 17 17 17 17 17 16 16 16 16 16 16 16 16 16 15 15 15 15 15 15 15 15 15 15
17 17 17 17 17 17 17 17 17 17 16 17 17 17 17 18 18 19 18 18 17 17 17 17 17 16 16 16 16 16 16 16 16 15 15 15 15 15 15 15 15 15 15
17 17 17 17 17 17 17 16 16 16 17 17 17 17 17 17 18 18 19 18 18 17 17 17 17 17 16 16 16 16 16 16 16 16 15 15 15 15 15 15 15 15 15
17 17 17 17 17 17 16 16 16 16 16 16 17 17 17 18 18 18 18 18 18 18 17 17 17 17 17 17 16 16 16 16 16 16 16 15 15 15 15 15 15 15 15
17 17 17 17 17 16 16 16 16 16 16 16 16 17 17 17 17 18 18 18 18 18 17 17 17 17 17 17 16 16 16 16 16 16 16 16 15 15 15 15 15 15 15
17 17 17 17 17 16 16 16 16 16 16 16 16 16 16 17 17 17 17 18 18 18 18 17 17 17 17 16 16 16 16 16 16 16 16 16 15 15 15 15 15 15 15
16 16 17 16 16 16 16 16 16 16 16 16 16 16 16 16 16 17 17 17 18 18 18 17 17 16 16 16 16 16 16 16 16 16 16 16 15 15 15 15 15 15 15
16 16 16 16 16 16 16 16 16 16 15 16 16 16 16 16 16 16 16 16 17 17 18 17 16 16 16 16 16 15 15 16 16 16 15 15 15 15 15 15 15 15 14
16 16 16 16 16 16 16 16 15 15 15 15 15 15 15 15 16 16 16 16 16 16 17 16 16 15 15 15 15 15 14 15 15 15 15 15 15 15 14 14 14 14 14
16 16 16 16 16 16 16 16 15 15 15 15 15 15 15 15 15 15 15 16 16 16 16 15 15 15 15 14 14 14 14 14 14 14 14 14 14 14 14 14 14 13 13
16 15 15 15 15 15 15 15 15 15 15 15 15 15 15 15 15 15 15 15 15 15 15 15 14 14 14 13 13 13 13 13 13 13 13 13 13 13 13 13 13 13 12
15 15 15 15 15 15 15 15 15 15 14 14 14 14 14 14 14 14 14 14 14 14 14 14 13 13 13 13 12 12 12 12 12 11 11 11 11 12 11 12 12 11 11
15 15 15 15 15 15 15 15 14 14 14 14 14 14 14 14 14 13 13 13 13 13 13 13 12 12 12 11 11 11 11 11 11 10 10 10 10 10 10 10 10 10 10
15 15 15 15 15 14 14 14 14 14 14 13 13 13 13 13 13 13 13 13 12 12 12 12 11 11 10 10 10 10 10 10 10 10 9 9 9 9 9 9 9 9 9
14 14 14 14 14 14 14 14 13 13 13 13 12 12 12 12 12 12 12 12 12 11 11 11 10 10 9 9 9 9 8 8 8 8 8 8 8 8 8 8 8 8 7
14 14 14 14 13 13 13 13 13 13 12 12 12 11 11 11 11 11 10 10 10 10 10 9 9 9 8 8 8 7 7 7 8 8 7 7 7 7 7 7 7 7 7
13 13 13 13 13 12 12 12 12 12 11 11 10 10 10 10 10 9 9 9 9 8 8 8 8 8 7 7 7 7 6 7 7 7 7 6 6 6 7 7 6 6 5
13 13 12 12 12 12 11 11 11 11 11 10 9 9 9 9 9 8 8 8 8 7 7 6 6 6 6 6 6 6 6 6 6 6 6 5 5 5 6 6 6 5 5
Wind_Speed
5 5 5 4 5 5 6 4 4 4 3 4 3 4 3 3 3 5 10 10 8 8 8 8 8 8 8 8 8 8 8 9 9 9 8 8 8 8 7 7 7 6 6
6 5 6 5 4 4 3 3 4 4 3 3 3 3 3 4 5 4 7 10 9 8 8 8 8 8 8 9 9 8 8 9 9 9 8 8 8 8 8 7 7 6 6
7 6 5 5 5 5 4 4 4 4 4 4 3 3 3 3 5 4 5 7 10 10 9 8 8 8 8 8 9 9 9 9 9 9 9 9 9 9 8 8 7 7 7
7 6 5 5 5 5 5 4 4 4 3 3 3 3 3 4 4 5 5 6 6 8 11 10 8 8 8 8 9 9 10 10 10 10 10 10 10 10 9 9 8 8 8
9 8 6 4 6 5 5 5 5 3 3 3 3 4 3 4 4 5 5 6 5 6 7 11 11 10 9 9 10 10 10 10 11 11 11 11 11 11 10 10 10 10 10
9 8 7 6 7 5 5 4 3 3 3 3 3 3 3 3 4 4 6 6 7 7 8 7 9 11 12 11 10 10 11 11 11 11 12 12 12 12 12 12 12 12 12
10 9 7 6 6 6 5 6 5 6 5 4 4 4 4 5 4 5 5 5 6 6 6 6 7 7 10 14 12 11 11 11 12 12 12 12 13 13 13 13 14 14 14
10 10 8 7 7 5 6 6 6 5 4 5 4 4 4 5 5 6 5 6 6 6 6 8 7 7 7 7 10 13 12 12 12 13 12 13 13 13 14 14 14 15 15
11 9 8 8 6 7 7 7 7 7 5 5 5 4 3 2 4 5 5 6 5 5 6 5 7 7 8 6 6 11 12 12 12 12 13 13 13 14 14 15 15 15 15
10 10 9 8 7 7 6 8 8 6 6 6 5 4 4 3 3 3 5 6 6 6 6 5 6 7 7 7 6 6 10 10 10 10 11 12 13 13 13 13 14 14 15
9 10 9 7 7 7 7 7 6 7 7 7 6 5 5 4 5 4 2 3 5 5 5 5 4 4 5 6 5 7 10 9 9 9 9 10 11 11 12 12 12 12 13
8 9 9 8 8 7 7 8 7 8 7 6 6 5 5 5 5 4 4 4 4 4 3 3 3 3 4 5 5 7 7 8 9 9 9 9 9 9 9 9 9 9 10
8 9 9 8 8 7 8 7 7 7 7 7 7 6 5 5 4 4 4 3 3 3 4 4 3 2 3 3 3 5 5 7 7 7 7 7 7 7 7 7 7 7 7
8 8 9 8 9 9 9 7 7 7 6 7 7 6 5 6 5 5 5 4 4 4 5 4 2 1 0 1 3 3 4 5 5 6 6 6 6 6 6 5 5 5 5
7 8 9 9 9 9 8 8 7 7 6 7 7 7 7 5 5 5 4 4 5 5 3 4 3 2 1 2 2 1 2 6 5 4 4 4 4 4 4 3 3 3 3
7 8 9 9 9 8 8 8 7 7 6 6 5 5 5 5 4 4 4 4 4 5 4 1 1 1 2 1 4 3 5 9 7 5 4 3 3 3 2 2 1 0 1
8 8 8 8 8 8 8 8 8 7 7 6 6 6 5 4 3 3 3 3 4 4 4 2 2 3 2 2 3 2 2 3 6 9 8 6 5 4 4 3 3 3 3
7 7 7 7 7 7 7 8 8 7 6 6 6 6 6 4 4 3 3 3 3 3 5 3 1 2 2 1 2 1 1 2 4 10 10 9 8 7 7 6 6 5 5
6 7 7 7 7 6 6 6 6 5 4 4 3 4 4 3 3 2 2 2 2 3 3 3 2 1 1 1 1 1 2 2 2 7 8 8 8 7 6 6 6 7 7
6 6 6 6 6 5 5 5 5 4 3 3 2 2 2 2 1 1 1 1 1 1 1 1 1 1 1 2 2 2 1 1 2 2 3 2 4 5 5 5 5 6 7
6 6 6 5 5 5 5 6 6 6 6 7 7 8 9 11 12 8 4 4 3 2 2 2 2 2 3 3 3 3 3 3 1 2 4 3 1 2 1 3 4 6 6
6 6 6 6 5 4 7 8 7 7 8 9 9 9 10 12 15 16 17 15 11 6 4 3 3 4 4 4 4 4 4 4 3 2 5 5 4 4 4 4 5 5 5
8 8 7 7 8 9 12 12 11 10 10 9 9 8 8 9 10 10 13 15 16 16 12 7 6 5 4 5 5 5 4 5 5 6 6 6 5 6 6 3 4 2 3
8 8 8 9 10 11 13 14 14 12 11 11 10 9 9 9 8 9 10 11 11 11 10 9 8 7 7 7 5 5 5 5 5 2 3 6 6 7 8 6 5 3 3
9 9 9 10 11 11 12 13 13 11 11 12 10 10 9 10 10 9 10 10 10 10 15 16 14 12 11 11 9 5 6 5 5 4 4 6 7 8 8 7 3 6 7
11 11 11 11 11 10 11 11 11 10 11 11 10 11 13 11 10 8 8 9 9 7 7 8 7 6 7 8 8 8 7 7 6 5 6 7 8 9 8 6 7 9 10
Wind_Direction
171 161 161 169 177 158 169 177 167 150 158 159 153 140 136 122 132 141 134 150 163 167 164 164 166 166 164 163 163 163 165 163 161 164 166 167 167 167 164 163 161 161 162
172 176 176 181 181 178 173 179 167 169 179 161 166 148 164 152 143 159 149 156 171 177 177 178 179 179 178 178 177 179 181 179 175 177 176 179 179 177 176 177 176 177 176
178 188 185 189 184 173 171 191 179 180 183 179 168 165 175 170 147 166 168 164 169 178 185 189 189 190 192 193 193 193 194 192 189 187 187 189 190 189 189 189 190 192 193
189 197 196 195 178 190 192 187 202 190 181 186 174 174 166 164 161 173 184 185 174 173 181 191 197 200 204 207 209 207 203 200 197 197 199 202 204 202 202 203 205 206 207
196 204 204 188 193 200 201 212 185 202 187 189 185 177 183 179 177 183 189 192 185 194 184 176 195 205 212 216 218 218 212 207 203 205 208 212 214 214 213 215 218 218 219
201 207 204 196 208 204 203 216 189 201 216 208 218 170 193 185 201 191 201 191 193 201 204 191 192 201 208 218 221 221 218 213 210 212 215 218 221 222 222 224 226 227 228
203 209 215 194 212 212 211 208 209 195 210 202 215 204 202 207 207 201 209 207 199 204 207 208 216 204 195 204 212 219 220 218 216 216 220 223 226 226 226 230 232 233 233
210 207 212 212 208 208 209 213 216 223 209 207 232 230 217 196 208 204 198 209 215 208 210 210 211 214 229 199 196 207 218 220 220 219 221 226 229 230 232 234 236 237 237
211 217 209 218 212 217 207 210 212 219 223 212 231 249 252 232 182 185 205 207 206 217 222 211 215 211 220 218 203 199 208 216 220 222 222 225 230 234 238 240 240 240 242
211 212 215 214 216 221 209 215 211 222 227 225 213 241 278 321 271 195 194 197 200 212 220 220 216 208 217 223 206 190 198 214 220 222 224 225 228 233 236 239 242 242 244
208 210 211 213 215 222 217 225 208 227 226 233 227 218 222 229 250 267 224 194 192 200 199 210 219 217 209 222 215 188 189 210 220 225 227 229 228 229 233 237 241 243 244
208 208 210 211 215 220 213 218 219 220 235 238 245 236 231 234 235 242 238 220 204 180 190 205 220 213 213 217 205 142 183 208 219 224 226 227 225 226 227 231 236 239 242
208 204 208 205 212 215 214 215 216 228 222 222 230 236 240 249 257 255 261 250 228 188 186 196 194 200 222 209 162 152 189 204 212 216 219 218 218 218 219 225 234 240 246
211 201 203 204 209 212 211 209 218 217 218 220 228 236 240 240 246 247 256 261 248 224 198 189 172 157 236 212 109 184 175 175 194 201 202 203 205 208 212 217 224 234 247
207 200 199 204 210 211 210 207 219 219 215 219 222 216 231 231 238 245 251 260 265 263 228 174 195 117 167 93 86 162 115 116 136 153 164 176 189 195 197 200 214 232 249
205 199 202 204 203 205 206 208 213 211 214 219 232 233 233 235 230 233 244 254 267 276 276 168 149 93 25 88 90 103 104 102 93 107 112 117 127 135 137 133 136 293 312
193 193 196 197 199 201 201 202 213 205 212 211 214 214 217 238 227 229 235 249 256 264 265 234 149 100 76 29 75 89 110 110 91 93 89 87 90 90 85 80 68 48 25
186 186 187 191 195 196 195 198 205 204 207 210 214 214 211 203 206 235 238 244 254 269 264 238 195 139 110 96 83 61 72 87 88 93 90 84 84 83 80 76 69 60 47
175 178 182 186 189 184 184 186 188 192 196 199 198 201 207 205 208 214 251 260 268 261 266 236 202 110 105 59 90 90 81 47 86 118 108 98 90 83 77 70 62 54 42
167 170 174 178 178 170 169 171 167 160 147 123 105 99 90 96 104 99 80 10 335 314 297 239 162 111 83 44 7 349 336 13 352 1 31 84 118 120 105 87 69 48 32
158 154 151 154 156 161 164 158 151 141 129 110 91 80 74 72 64 60 63 58 49 47 51 63 63 61 46 28 8 344 333 319 312 346 320 303 263 268 200 145 90 46 25
135 133 134 133 128 125 103 108 123 121 115 110 103 96 89 82 79 74 68 61 55 62 65 65 69 62 42 25 5 340 335 320 307 9 323 307 304 300 305 308 72 48 16
123 118 116 112 103 95 98 101 103 110 106 103 103 102 98 92 92 92 83 77 66 59 56 64 69 53 44 23 0 350 355 334 322 326 321 308 312 308 305 327 111 47 351
118 113 106 103 99 96 98 102 104 104 99 95 93 94 97 92 87 90 90 83 74 63 60 66 71 58 49 28 2 344 331 307 281 282 330 308 319 314 310 298 174 187 285
110 105 103 102 102 100 97 103 108 107 102 95 91 87 93 95 79 85 95 93 89 84 78 80 80 79 68 47 20 2 356 338 332 335 359 327 320 317 305 291 234 198 253
111 109 104 101 103 102 93 97 105 110 107 103 94 85 77 81 71 70 94 97 92 86 86 90 90 90 68 59 42 22 4 348 337 331 7 336 323 325 311 306 314 306 294
Height
1565 1566 1568 1569 1571 1572 1573 1574 1576 1576 1577 1578 1579 1580 1581 1581 1583 1584 1583 1583 1584 1585 1586 1587 1588 1589 1590 1591 1592 1593 1593 1594 1595 1595 1596 1597 1597 1598 1598 1599 1599 1600 1600
1565 1566 1567 1569 1571 1572 1574 1575 1576 1577 1578 1579 1579 1580 1581 1582 1582 1583 1584 1584 1584 1585 1586 1587 1588 1589 1590 1591 1591 1592 1593 1594 1594 1595 1596 1597 1597 1598 1598 1599 1599 1600 1600
1564 1566 1568 1569 1571 1572 1573 1574 1575 1577 1578 1579 1579 1580 1581 1581 1582 1583 1584 1585 1585 1585 1586 1586 1587 1588 1589 1590 1591 1592 1592 1593 1594 1595 1595 1596 1597 1597 1598 1598 1599 1599 1600
1562 1564 1567 1569 1570 1572 1573 1574 1576 1577 1578 1579 1579 1580 1580 1581 1581 1582 1583 1584 1585 1586 1585 1586 1587 1587 1588 1589 1590 1591 1591 1592 1593 1594 1595 1595 1596 1597 1597 1598 1598 1599 1599
1561 1564 1566 1568 1569 1571 1573 1574 1575 1576 1577 1578 1579 1579 1580 1580 1581 1582 1582 1583 1584 1585 1585 1585 1586 1587 1587 1588 1589 1589 1590 1591 1592 1592 1593 1594 1595 1596 1596 1597 1597 1598 1598
1560 1563 1565 1566 1568 1570 1571 1573 1574 1575 1576 1577 1578 1579 1579 1580 1580 1581 1582 1582 1583 1584 1585 1585 1585 1586 1586 1587 1587 1588 1588 1589 1590 1591 1592 1592 1593 1594 1595 1595 1596 1596 1597
1559 1561 1564 1565 1567 1569 1570 1572 1573 1574 1575 1576 1578 1578 1578 1578 1579 1579 1580 1581 1582 1583 1583 1583 1584 1585 1585 1585 1586 1586 1587 1587 1588 1589 1589 1590 1591 1592 1593 1593 1594 1594 1595
1557 1560 1561 1563 1565 1567 1568 1570 1571 1573 1574 1575 1576 1577 1577 1579 1577 1578 1579 1579 1580 1581 1582 1582 1583 1583 1584 1585 1584 1584 1585 1585 1586 1587 1587 1588 1589 1590 1590 1591 1591 1592 1592
1555 1557 1559 1561 1563 1565 1567 1568 1570 1571 1573 1574 1575 1576 1576 1575 1576 1577 1577 1578 1578 1579 1580 1581 1581 1582 1582 1583 1583 1583 1583 1584 1584 1585 1585 1586 1586 1587 1588 1588 1589 1589 1589
1552 1555 1557 1559 1561 1563 1564 1566 1568 1570 1571 1572 1573 1573 1574 1574 1575 1575 1576 1576 1576 1577 1578 1579 1580 1580 1580 1581 1581 1581 1581 1582 1582 1583 1583 1584 1584 1585 1585 1585 1586 1586 1586
1549 1552 1554 1556 1558 1560 1562 1564 1566 1567 1569 1570 1571 1572 1573 1573 1574 1574 1574 1575 1575 1576 1577 1577 1578 1579 1579 1579 1579 1579 1579 1580 1580 1581 1581 1582 1582 1582 1583 1583 1583 1583 1583
1546 1549 1551 1553 1555 1558 1559 1561 1563 1565 1566 1568 1569 1570 1571 1572 1572 1573 1573 1574 1574 1575 1575 1576 1576 1577 1577 1578 1578 1577 1578 1578 1578 1579 1579 1580 1580 1580 1580 1580 1580 1580 1580
1543 1545 1548 1550 1552 1555 1557 1559 1560 1562 1563 1565 1566 1568 1569 1570 1571 1571 1572 1572 1573 1573 1573 1574 1575 1575 1576 1576 1576 1575 1575 1576 1576 1577 1577 1577 1577 1578 1577 1577 1577 1577 1577
1540 1542 1544 1547 1549 1552 1554 1556 1558 1559 1560 1562 1564 1565 1566 1568 1569 1570 1570 1571 1571 1571 1572 1572 1573 1573 1573 1573 1573 1573 1573 1573 1574 1574 1574 1575 1575 1575 1575 1575 1574 1574 1574
1536 1538 1540 1543 1546 1548 1551 1553 1555 1556 1558 1559 1561 1562 1564 1565 1566 1567 1568 1569 1570 1569 1569 1569 1571 1570 1571 1571 1570 1570 1571 1570 1571 1571 1571 1571 1572 1572 1572 1571 1571 1571 1570
1532 1534 1537 1540 1542 1545 1547 1549 1552 1553 1555 1557 1558 1559 1561 1562 1563 1564 1565 1566 1567 1568 1568 1568 1568 1568 1568 1569 1568 1568 1567 1567 1568 1568 1568 1568 1568 1568 1568 1567 1567 1567 1566
1528 1531 1534 1536 1539 1542 1544 1546 1549 1551 1552 1554 1556 1557 1558 1559 1561 1562 1563 1564 1565 1565 1566 1566 1566 1565 1565 1565 1565 1565 1565 1565 1564 1564 1564 1564 1564 1563 1563 1563 1562 1562 1561
1525 1528 1531 1534 1537 1539 1541 1544 1546 1548 1550 1551 1553 1554 1555 1557 1557 1559 1560 1561 1562 1562 1563 1563 1563 1563 1562 1562 1562 1562 1563 1563 1561 1560 1560 1559 1559 1559 1558 1558 1557 1556 1556
1523 1526 1529 1532 1534 1537 1539 1541 1543 1546 1547 1549 1550 1552 1553 1554 1555 1556 1557 1558 1559 1560 1560 1560 1560 1560 1560 1560 1559 1559 1559 1559 1559 1557 1556 1555 1554 1554 1553 1552 1551 1551 1550
1522 1524 1527 1530 1532 1535 1537 1539 1541 1543 1545 1546 1548 1549 1550 1551 1552 1553 1554 1555 1556 1557 1557 1557 1558 1557 1557 1557 1557 1557 1557 1556 1556 1555 1553 1552 1550 1549 1548 1547 1546 1545 1544
1520 1523 1525 1528 1530 1533 1535 1537 1539 1540 1542 1544 1546 1547 1548 1549 1550 1551 1552 1553 1553 1554 1554 1555 1555 1555 1555 1554 1554 1554 1554 1553 1552 1551 1550 1550 1548 1547 1545 1542 1540 1539 1538
1519 1521 1524 1526 1528 1531 1533 1535 1537 1538 1540 1542 1543 1545 1546 1548 1549 1550 1550 1551 1552 1552 1553 1553 1553 1553 1552 1552 1551 1551 1551 1551 1550 1549 1547 1546 1545 1544 1542 1540 1537 1535 1533
1519 1521 1523 1525 1527 1529 1532 1534 1535 1537 1539 1540 1542 1544 1545 1546 1548 1549 1549 1550 1550 1550 1551 1551 1551 1551 1551 1550 1549 1549 1548 1547 1546 1545 1543 1542 1542 1540 1538 1536 1532 1530 1528
1518 1521 1523 1525 1526 1529 1531 1533 1535 1536 1538 1540 1541 1543 1544 1545 1546 1547 1548 1549 1549 1549 1549 1549 1549 1549 1549 1548 1547 1548 1546 1545 1544 1542 1540 1540 1538 1537 1534 1531 1528 1525 1523
1518 1520 1522 1524 1526 1528 1530 1532 1534 1536 1537 1539 1541 1543 1544 1545 1546 1547 1548 1549 1549 1549 1549 1548 1548 1548 1547 1546 1546 1546 1545 1544 1543 1542 1539 1538 1536 1533 1531 1529 1526 1522 1519
1518 1520 1522 1524 1526 1528 1530 1532 1534 1535 1536 1538 1540 1542 1544 1545 1547 1547 1548 1549 1549 1549 1549 1548 1548 1547 1547 1545 1544 1543 1543 1543 1541 1540 1537 1535 1533 1531 1528 1526 1523 1520 1517